User: anonymous
Location: Oshawa
(43.9000°N, 78.8670°W)
Time: 13:34:08
(UTC-04:00)
Language:

Cosmos 1805 Rocket - Orbit

View from above orbital plane
View from above orbital plane
View from above satellite
View from above satellite

Ground track
Ground track

The orbit data is extracted from the following two-line orbital elements,

1 17192U 86097B   14260.16341759  .00000410  00000-0  47429-4 0  5440
2 17192 082.5049 118.6176 0017818 165.7913 300.9678 14.82995283499845
Epoch (UTC): 17 September 2014 03:55:19
Eccentricity: 0.0017818
inclination: 82.5049°
perigee height: 607 km
apogee height: 632 km
right ascension of ascending node: 118.6176°
argument of perigee: 165.7913°
revolutions per day: 14.82995283
mean anomaly at epoch: 300.9678°
orbit number at epoch: 49984

The dashed part of the orbit path shows where the satellite is in the earth's shadow,  

DLR